| time (UTC) | temp F | wind direction | speed MPH | gust MPH | rain 1hr in | rain 24hr in | rain mn in | humidity % | barometer mb |
| 20260901231017 | 82 | 338 | 5.0 | 13.0 | 0.00 | 0.00 | 0.00 | 68 | 1018.1 |
| 20260901230517 | 82 | 315 | 5.0 | 11.0 | 0.00 | 0.00 | 0.00 | 69 | 1018.1 |
| 20260901230057 | 82 | 338 | 5.0 | 16.0 | 0.00 | 0.00 | 0.00 | 69 | 1018.1 |
| 20260901225518 | 82 | 338 | 6.0 | 16.0 | 0.00 | 0.00 | 0.00 | 69 | 1017.8 |
| 20260901225017 | 82 | 315 | 5.0 | 12.0 | 0.00 | 0.00 | 0.00 | 69 | 1017.8 |
| 20260901224517 | 82 | 315 | 5.0 | 10.0 | 0.00 | 0.00 | 0.00 | 70 | 1017.8 |
| 20260901224038 | 82 | 23 | 3.0 | 9.0 | 0.00 | 0.00 | 0.00 | 70 | 1017.9 |
| 20260901223517 | 82 | 293 | 4.0 | 12.0 | 0.00 | 0.00 | 0.00 | 71 | 1017.9 |
| 20260901223017 | 82 | 338 | 4.0 | 9.0 | 0.00 | 0.00 | 0.00 | 71 | 1017.9 |
| 20260901222517 | 82 | 315 | 4.0 | 10.0 | 0.00 | 0.00 | 0.00 | 71 | 1017.9 |
| 20260901222017 | 82 | 315 | 5.0 | 9.0 | 0.00 | 0.00 | 0.00 | 71 | 1017.9 |
| 20260901221537 | 82 | 293 | 4.0 | 8.0 | 0.00 | 0.00 | 0.00 | 71 | 1017.9 |
| 20260901221017 | 82 | 0 | 4.0 | 9.0 | 0.00 | 0.00 | 0.00 | 71 | 1017.9 |
| 20260901220517 | 82 | 293 | 2.0 | 8.0 | 0.00 | 0.00 | 0.00 | 71 | 1018.0 |
| 20260901220019 | 82 | 338 | 4.0 | 12.0 | 0.00 | 0.00 | 0.00 | 71 | 1018.0 |
| 20260901215518 | 82 | 315 | 1.0 | 4.0 | 0.00 | 0.00 | 0.00 | 71 | 1018.0 |
| 20260901215017 | 82 | 0 | 4.0 | 8.0 | 0.00 | 0.00 | 0.00 | 71 | 1018.0 |
| 20260901214516 | 82 | 0 | 3.0 | 9.0 | 0.00 | 0.00 | 0.00 | 71 | 1018.0 |
| 20260901214017 | 82 | 338 | 2.0 | 7.0 | 0.00 | 0.00 | 0.00 | 71 | 1018.0 |
| 20260901213517 | 82 | 315 | 2.0 | 4.0 | 0.00 | 0.00 | 0.00 | 71 | 1018.0 |
| 20260901213016 | 82 | 338 | 4.0 | 10.0 | 0.00 | 0.00 | 0.00 | 70 | 1018.0 |
| 20260901212519 | 82 | 270 | 2.0 | 5.0 | 0.00 | 0.00 | 0.00 | 70 | 1018.1 |
| 20260901212017 | 82 | 270 | 1.0 | 3.0 | 0.00 | 0.00 | 0.00 | 71 | 1018.0 |
| 20260901211517 | 82 | 0 | 3.0 | 8.0 | 0.00 | 0.00 | 0.00 | 70 | 1018.1 |
| 20260901211016 | 82 | 338 | 2.0 | 8.0 | 0.00 | 0.00 | 0.00 | 70 | 1018.1 |
| 20260901210517 | 82 | 315 | 3.0 | 5.0 | 0.00 | 0.00 | 0.00 | 70 | 1018.0 |
| 20260901210016 | 82 | 338 | 5.0 | 11.0 | 0.00 | 0.00 | 0.00 | 69 | 1018.0 |
| 20260901205517 | 82 | 315 | 4.0 | 8.0 | 0.00 | 0.00 | 0.00 | 70 | 1018.0 |
| 20260901205016 | 82 | 315 | 6.0 | 13.0 | 0.00 | 0.00 | 0.00 | 70 | 1018.1 |
| 20260901204516 | 82 | 293 | 6.0 | 12.0 | 0.00 | 0.00 | 0.00 | 70 | 1018.1 |
| 20260901204017 | 82 | 315 | 3.0 | 9.0 | 0.00 | 0.00 | 0.00 | 70 | 1018.1 |
| 20260901203516 | 82 | 315 | 6.0 | 11.0 | 0.00 | 0.00 | 0.00 | 70 | 1018.1 |
| 20260901203036 | 82 | 293 | 4.0 | 10.0 | 0.00 | 0.00 | 0.00 | 70 | 1018.1 |
| 20260901202517 | 82 | 315 | 6.0 | 13.0 | 0.00 | 0.00 | 0.00 | 70 | 1018.1 |
| 20260901202017 | 82 | 293 | 6.0 | 13.0 | 0.00 | 0.00 | 0.00 | 70 | 1018.2 |
| 20260901201537 | 82 | 293 | 4.0 | 9.0 | 0.00 | 0.00 | 0.00 | 70 | 1018.2 |
| 20260901201016 | 82 | 315 | 4.0 | 9.0 | 0.00 | 0.00 | 0.00 | 70 | 1018.3 |
| 20260901200516 | 82 | 293 | 3.0 | 8.0 | 0.00 | 0.00 | 0.00 | 70 | 1018.4 |
| 20260901200017 | 82 | 315 | 4.0 | 9.0 | 0.00 | 0.00 | 0.00 | 70 | 1018.4 |
| 20260901195516 | 82 | 315 | 2.0 | 9.0 | 0.00 | 0.00 | 0.00 | 70 | 1018.4 |
| 20260901195017 | 82 | 293 | 4.0 | 11.0 | 0.00 | 0.00 | 0.00 | 70 | 1018.3 |
| 20260901194516 | 82 | 293 | 3.0 | 7.0 | 0.00 | 0.00 | 0.00 | 70 | 1018.4 |
| 20260901194016 | 82 | 315 | 5.0 | 11.0 | 0.00 | 0.00 | 0.00 | 70 | 1018.4 |
| 20260901193539 | 82 | 315 | 5.0 | 10.0 | 0.00 | 0.00 | 0.00 | 70 | 1018.4 |
| 20260901193016 | 82 | 315 | 6.0 | 11.0 | 0.00 | 0.00 | 0.00 | 70 | 1018.3 |
| 20260901192517 | 82 | 293 | 5.0 | 10.0 | 0.00 | 0.00 | 0.00 | 70 | 1018.2 |
| 20260901192016 | 82 | 315 | 5.0 | 12.0 | 0.00 | 0.00 | 0.00 | 69 | 1018.2 |
| 20260901191516 | 82 | 270 | 7.0 | 12.0 | 0.00 | 0.00 | 0.00 | 69 | 1018.1 |
| 20260901191016 | 82 | 315 | 7.0 | 12.0 | 0.00 | 0.00 | 0.00 | 68 | 1018.1 |
| 20260901190516 | 82 | 315 | 5.0 | 14.0 | 0.00 | 0.00 | 0.00 | 68 | 1018.1 |
| 20260901190016 | 82 | 293 | 6.0 | 13.0 | 0.00 | 0.00 | 0.00 | 68 | 1018.0 |
| 20260901185536 | 82 | 338 | 6.0 | 13.0 | 0.00 | 0.00 | 0.00 | 68 | 1018.0 |
| 20260901185016 | 82 | 293 | 7.0 | 12.0 | 0.00 | 0.00 | 0.00 | 68 | 1017.9 |
| 20260901184556 | 83 | 293 | 4.0 | 8.0 | 0.00 | 0.00 | 0.00 | 68 | 1017.9 |
| 20260901184016 | 82 | 293 | 4.0 | 13.0 | 0.00 | 0.00 | 0.00 | 68 | 1017.8 |
| 20260901183516 | 82 | 293 | 5.0 | 13.0 | 0.00 | 0.00 | 0.00 | 68 | 1017.8 |
| 20260901183016 | 82 | 315 | 5.0 | 16.0 | 0.00 | 0.00 | 0.00 | 68 | 1017.8 |
| 20260901182516 | 82 | 293 | 5.0 | 13.0 | 0.00 | 0.00 | 0.00 | 68 | 1017.7 |
| 20260901182016 | 82 | 315 | 5.0 | 10.0 | 0.00 | 0.00 | 0.00 | 68 | 1017.7 |
| 20260901181516 | 82 | 23 | 5.0 | 14.0 | 0.00 | 0.00 | 0.00 | 69 | 1017.8 |
| 20260901181016 | 82 | 0 | 5.0 | 10.0 | 0.00 | 0.00 | 0.00 | 69 | 1017.5 |
| 20260901180516 | 82 | 338 | 4.0 | 16.0 | 0.00 | 0.00 | 0.00 | 68 | 1017.6 |
| 20260901180017 | 82 | 315 | 5.0 | 12.0 | 0.00 | 0.00 | 0.00 | 68 | 1017.5 |
| 20260901175516 | 82 | 0 | 6.0 | 11.0 | 0.00 | 0.00 | 0.00 | 68 | 1017.4 |
| 20260901175016 | 82 | 23 | 4.0 | 12.0 | 0.00 | 0.00 | 0.00 | 68 | 1017.4 |
| 20260901174537 | 82 | 315 | 5.0 | 11.0 | 0.00 | 0.00 | 0.00 | 67 | 1017.2 |
| 20260901174017 | 83 | 338 | 6.0 | 12.0 | 0.00 | 0.00 | 0.00 | 67 | 1017.4 |
| 20260901173516 | 83 | 315 | 5.0 | 11.0 | 0.00 | 0.00 | 0.00 | 67 | 1017.2 |
| 20260901173016 | 83 | 0 | 6.0 | 13.0 | 0.00 | 0.00 | 0.00 | 66 | 1017.2 |
| 20260901172516 | 83 | 338 | 6.0 | 12.0 | 0.00 | 0.00 | 0.00 | 66 | 1017.2 |
| 20260901172016 | 83 | 338 | 7.0 | 14.0 | 0.00 | 0.00 | 0.00 | 65 | 1017.1 |
| 20260901171536 | 83 | 338 | 6.0 | 12.0 | 0.00 | 0.00 | 0.00 | 64 | 1017.0 |
| 20260901171016 | 83 | 315 | 6.0 | 15.0 | 0.00 | 0.00 | 0.00 | 63 | 1017.1 |
| 20260901170536 | 84 | 0 | 6.0 | 13.0 | 0.00 | 0.00 | 0.00 | 63 | 1017.2 |
| 20260901170016 | 84 | 315 | 5.0 | 11.0 | 0.00 | 0.00 | 0.00 | 63 | 1017.0 |
| 20260901165516 | 84 | 315 | 3.0 | 7.0 | 0.00 | 0.00 | 0.00 | 62 | 1017.1 |
| 20260901165016 | 84 | 315 | 6.0 | 12.0 | 0.00 | 0.00 | 0.00 | 62 | 1017.0 |
| 20260901164536 | 84 | 293 | 5.0 | 10.0 | 0.00 | 0.00 | 0.00 | 61 | 1017.0 |
| 20260901164016 | 85 | 315 | 6.0 | 13.0 | 0.00 | 0.00 | 0.00 | 61 | 1017.1 |
| 20260901163516 | 85 | 315 | 6.0 | 14.0 | 0.00 | 0.00 | 0.00 | 60 | 1017.1 |
| 20260901163036 | 86 | 315 | 4.0 | 10.0 | 0.00 | 0.00 | 0.00 | 58 | 1017.1 |
| 20260901162516 | 86 | 293 | 4.0 | 10.0 | 0.00 | 0.00 | 0.00 | 56 | 1017.1 |
| 20260901162016 | 87 | 293 | 4.0 | 10.0 | 0.00 | 0.00 | 0.00 | 56 | 1017.1 |
| 20260901161516 | 87 | 315 | 7.0 | 16.0 | 0.00 | 0.00 | 0.00 | 55 | 1017.0 |
| 20260901161016 | 88 | 270 | 3.0 | 10.0 | 0.00 | 0.00 | 0.00 | 54 | 1017.1 |
| 20260901160516 | 88 | 248 | 3.0 | 11.0 | 0.00 | 0.00 | 0.00 | 53 | 1017.0 |
| 20260901160016 | 87 | 0 | 5.0 | 12.0 | 0.00 | 0.00 | 0.00 | 53 | 1017.0 |
| 20260901155536 | 88 | 270 | 3.0 | 7.0 | 0.00 | 0.00 | 0.00 | 53 | 1017.0 |
| 20260901155036 | 88 | 0 | 4.0 | 9.0 | 0.00 | 0.00 | 0.00 | 53 | 1017.0 |
| 20260901154516 | 88 | 293 | 6.0 | 14.0 | 0.00 | 0.00 | 0.00 | 53 | 1017.0 |
| 20260901154036 | 88 | 0 | 5.0 | 12.0 | 0.00 | 0.00 | 0.00 | 53 | 1017.0 |
| 20260901153516 | 88 | 315 | 4.0 | 11.0 | 0.00 | 0.00 | 0.00 | 52 | 1016.9 |
| 20260901153018 | 88 | 270 | 4.0 | 11.0 | 0.00 | 0.00 | 0.00 | 52 | 1016.9 |
| 20260901152536 | 88 | 293 | 5.0 | 10.0 | 0.00 | 0.00 | 0.00 | 51 | 1017.0 |
| 20260901152016 | 88 | 293 | 5.0 | 11.0 | 0.00 | 0.00 | 0.00 | 51 | 1016.9 |
| 20260901151516 | 88 | 315 | 5.0 | 13.0 | 0.00 | 0.00 | 0.00 | 50 | 1016.9 |
| 20260901151016 | 88 | 315 | 10.0 | 20.0 | 0.00 | 0.00 | 0.00 | 50 | 1016.9 |
| 20260901150515 | 88 | 338 | 8.0 | 14.0 | 0.00 | 0.00 | 0.00 | 49 | 1016.9 |
| 20260901150016 | 89 | 293 | 10.0 | 20.0 | 0.00 | 0.00 | 0.00 | 48 | 1016.9 |
| 20260901145515 | 89 | 338 | 8.0 | 14.0 | 0.00 | 0.00 | 0.00 | 47 | 1016.9 |
| 20260901145015 | 89 | 315 | 8.0 | 16.0 | 0.00 | 0.00 | 0.00 | 47 | 1016.8 |
| 20260901144556 | 89 | 315 | 7.0 | 18.0 | 0.00 | 0.00 | 0.00 | 49 | 1016.7 |
| 20260901144036 | 89 | 0 | 8.0 | 14.0 | 0.00 | 0.00 | 0.00 | 50 | 1016.7 |
| 20260901143515 | 89 | 338 | 9.0 | 18.0 | 0.00 | 0.00 | 0.00 | 48 | 1016.6 |
| 20260901143016 | 89 | 315 | 7.0 | 17.0 | 0.00 | 0.00 | 0.00 | 49 | 1016.7 |
| 20260901142515 | 89 | 315 | 10.0 | 20.0 | 0.00 | 0.00 | 0.00 | 50 | 1016.7 |
| 20260901142015 | 89 | 293 | 9.0 | 15.0 | 0.00 | 0.00 | 0.00 | 50 | 1016.7 |
| 20260901141535 | 89 | 315 | 10.0 | 22.0 | 0.00 | 0.00 | 0.00 | 50 | 1016.2 |
| 20260901141015 | 90 | 338 | 6.0 | 14.0 | 0.00 | 0.00 | 0.00 | 49 | 1016.3 |
| 20260901140516 | 90 | 315 | 8.0 | 14.0 | 0.00 | 0.00 | 0.00 | 48 | 1016.4 |
| 20260901140016 | 90 | 293 | 8.0 | 20.0 | 0.00 | 0.00 | 0.00 | 48 | 1016.3 |
| 20260901135556 | 90 | 315 | 5.0 | 12.0 | 0.00 | 0.00 | 0.00 | 48 | 1016.3 |
| 20260901135016 | 90 | 270 | 8.0 | 16.0 | 0.00 | 0.00 | 0.00 | 48 | 1016.3 |
| 20260901134515 | 90 | 315 | 9.0 | 16.0 | 0.00 | 0.00 | 0.00 | 47 | 1016.3 |
| 20260901134035 | 90 | 270 | 10.0 | 24.0 | 0.00 | 0.00 | 0.00 | 47 | 1016.3 |
| 20260901133556 | 91 | 270 | 10.0 | 20.0 | 0.00 | 0.00 | 0.00 | 46 | 1016.4 |
| 20260901133015 | 91 | 293 | 7.0 | 20.0 | 0.00 | 0.00 | 0.00 | 44 | 1016.3 |
| 20260901132515 | 91 | 270 | 11.0 | 18.0 | 0.00 | 0.00 | 0.00 | 45 | 1016.3 |
| 20260901132015 | 91 | 270 | 7.0 | 18.0 | 0.00 | 0.00 | 0.00 | 43 | 1016.3 |
| 20260901131516 | 91 | 270 | 9.0 | 16.0 | 0.00 | 0.00 | 0.00 | 44 | 1016.4 |
| 20260901131015 | 91 | 270 | 5.0 | 17.0 | 0.00 | 0.00 | 0.00 | 45 | 1016.4 |
| 20260901130515 | 91 | 293 | 9.0 | 16.0 | 0.00 | 0.00 | 0.00 | 46 | 1016.3 |
| 20260901130035 | 92 | 293 | 6.0 | 15.0 | 0.00 | 0.00 | 0.00 | 45 | 1016.3 |
| 20260901125517 | 92 | 270 | 6.0 | 12.0 | 0.00 | 0.00 | 0.00 | 45 | 1016.5 |
| 20260901125058 | 92 | 315 | 5.0 | 14.0 | 0.00 | 0.00 | 0.00 | 46 | 1016.5 |
| 20260901124517 | 91 | 270 | 6.0 | 13.0 | 0.00 | 0.00 | 0.00 | 45 | 1016.6 |
| 20260901124017 | 91 | 270 | 8.0 | 15.0 | 0.00 | 0.00 | 0.00 | 46 | 1016.6 |
| 20260901123517 | 91 | 270 | 8.0 | 15.0 | 0.00 | 0.00 | 0.00 | 46 | 1016.6 |
| 20260901123017 | 91 | 270 | 8.0 | 18.0 | 0.00 | 0.00 | 0.00 | 46 | 1016.7 |
| 20260901122517 | 92 | 270 | 7.0 | 14.0 | 0.00 | 0.00 | 0.00 | 45 | 1016.7 |
| 20260901122017 | 91 | 315 | 6.0 | 12.0 | 0.00 | 0.00 | 0.00 | 46 | 1016.6 |
| 20260901121517 | 91 | 270 | 8.0 | 15.0 | 0.00 | 0.00 | 0.00 | 46 | 1016.6 |
| 20260901121017 | 92 | 293 | 8.0 | 14.0 | 0.00 | 0.00 | 0.00 | 45 | 1016.7 |
| 20260901120557 | 92 | 338 | 8.0 | 13.0 | 0.00 | 0.00 | 0.00 | 46 | 1016.8 |
| 20260901120017 | 92 | 315 | 7.0 | 13.0 | 0.00 | 0.00 | 0.00 | 46 | 1016.7 |
| 20260901115517 | 92 | 315 | 8.0 | 17.0 | 0.00 | 0.00 | 0.00 | 46 | 1016.7 |
| 20260901115037 | 92 | 315 | 9.0 | 18.0 | 0.00 | 0.00 | 0.00 | 46 | 1016.7 |
| 20260901114537 | 92 | 293 | 7.0 | 14.0 | 0.00 | 0.00 | 0.00 | 46 | 1016.7 |
| 20260901114017 | 92 | 315 | 7.0 | 19.0 | 0.00 | 0.00 | 0.00 | 45 | 1016.6 |
| 20260901113518 | 92 | 315 | 8.0 | 17.0 | 0.00 | 0.00 | 0.00 | 45 | 1016.7 |
| 20260901113017 | 92 | 270 | 7.0 | 15.0 | 0.00 | 0.00 | 0.00 | 44 | 1016.8 |
| 20260901112537 | 92 | 270 | 5.0 | 10.0 | 0.00 | 0.00 | 0.00 | 42 | 1016.8 |
| 20260901112017 | 92 | 90 | 4.0 | 10.0 | 0.00 | 0.00 | 0.00 | 38 | 1016.7 |
| 20260901111517 | 92 | 293 | 3.0 | 9.0 | 0.00 | 0.00 | 0.00 | 40 | 1016.8 |
| 20260901111017 | 91 | 45 | 2.0 | 5.0 | 0.00 | 0.00 | 0.00 | 38 | 1016.9 |
| 20260901110517 | 91 | 293 | 5.0 | 10.0 | 0.00 | 0.00 | 0.00 | 39 | 1016.8 |
| 20260901110017 | 91 | 68 | 3.0 | 7.0 | 0.00 | 0.00 | 0.00 | 40 | 1016.9 |
| 20260901105517 | 91 | 248 | 2.0 | 8.0 | 0.00 | 0.00 | 0.00 | 39 | 1016.9 |
| 20260901105037 | 91 | 248 | 3.0 | 7.0 | 0.00 | 0.00 | 0.00 | 41 | 1017.0 |
| 20260901104517 | 90 | 270 | 5.0 | 10.0 | 0.00 | 0.00 | 0.00 | 42 | 1017.1 |
| 20260901104017 | 90 | 293 | 7.0 | 12.0 | 0.00 | 0.00 | 0.00 | 45 | 1017.0 |
| 20260901103538 | 90 | 270 | 8.0 | 12.0 | 0.00 | 0.00 | 0.00 | 47 | 1017.1 |
| 20260901103057 | 89 | 270 | 8.0 | 13.0 | 0.00 | 0.00 | 0.00 | 48 | 1017.1 |
| 20260901102517 | 88 | 270 | 8.0 | 16.0 | 0.00 | 0.00 | 0.00 | 51 | 1017.1 |
| 20260901102057 | 89 | 270 | 7.0 | 15.0 | 0.00 | 0.00 | 0.00 | 53 | 1017.1 |
| 20260901101517 | 89 | 270 | 5.0 | 12.0 | 0.00 | 0.00 | 0.00 | 53 | 1017.3 |
| 20260901101017 | 89 | 293 | 5.0 | 12.0 | 0.00 | 0.00 | 0.00 | 52 | 1017.2 |
| 20260901100517 | 89 | 270 | 4.0 | 13.0 | 0.00 | 0.00 | 0.00 | 54 | 1017.2 |
| 20260901100017 | 88 | 338 | 7.0 | 13.0 | 0.00 | 0.00 | 0.00 | 54 | 1017.2 |
| 20260901095517 | 88 | 315 | 7.0 | 15.0 | 0.00 | 0.00 | 0.00 | 54 | 1017.3 |
| 20260901095017 | 88 | 315 | 6.0 | 13.0 | 0.00 | 0.00 | 0.00 | 54 | 1017.3 |
| 20260901094517 | 88 | 293 | 6.0 | 13.0 | 0.00 | 0.00 | 0.00 | 55 | 1017.5 |
| 20260901094017 | 88 | 293 | 4.0 | 13.0 | 0.00 | 0.00 | 0.00 | 55 | 1017.6 |
| 20260901093517 | 88 | 338 | 5.0 | 13.0 | 0.00 | 0.00 | 0.00 | 57 | 1017.6 |
| 20260901093017 | 87 | 23 | 5.0 | 10.0 | 0.00 | 0.00 | 0.00 | 57 | 1017.6 |
| 20260901092517 | 87 | 23 | 6.0 | 12.0 | 0.00 | 0.00 | 0.00 | 57 | 1017.5 |
| 20260901092017 | 87 | 293 | 7.0 | 16.0 | 0.00 | 0.00 | 0.00 | 56 | 1017.6 |
| 20260901091517 | 87 | 0 | 6.0 | 15.0 | 0.00 | 0.00 | 0.00 | 55 | 1017.5 |
| 20260901091016 | 87 | 315 | 5.0 | 12.0 | 0.00 | 0.00 | 0.00 | 57 | 1017.6 |
| 20260901090517 | 87 | 293 | 6.0 | 14.0 | 0.00 | 0.00 | 0.00 | 57 | 1017.5 |
| 20260901090016 | 87 | 270 | 7.0 | 14.0 | 0.00 | 0.00 | 0.00 | 57 | 1017.5 |
| 20260901085517 | 87 | 293 | 6.0 | 13.0 | 0.00 | 0.00 | 0.00 | 55 | 1017.5 |
| 20260901085017 | 86 | 270 | 8.0 | 17.0 | 0.00 | 0.00 | 0.00 | 57 | 1017.5 |
| 20260901084517 | 87 | 315 | 8.0 | 18.0 | 0.00 | 0.00 | 0.00 | 56 | 1017.5 |
| 20260901084017 | 87 | 293 | 5.0 | 12.0 | 0.00 | 0.00 | 0.00 | 56 | 1017.5 |
| 20260901083517 | 87 | 338 | 5.0 | 14.0 | 0.00 | 0.00 | 0.00 | 55 | 1017.6 |
| 20260901083016 | 86 | 23 | 5.0 | 9.0 | 0.00 | 0.00 | 0.00 | 56 | 1017.4 |
| 20260901082517 | 86 | 315 | 4.0 | 11.0 | 0.00 | 0.00 | 0.00 | 55 | 1017.4 |
| 20260901082017 | 86 | 338 | 5.0 | 13.0 | 0.00 | 0.00 | 0.00 | 56 | 1017.4 |
| 20260901081537 | 86 | 0 | 6.0 | 14.0 | 0.00 | 0.00 | 0.00 | 56 | 1017.4 |
| 20260901081016 | 86 | 0 | 4.0 | 12.0 | 0.00 | 0.00 | 0.00 | 57 | 1017.4 |
| 20260901080516 | 86 | 270 | 5.0 | 11.0 | 0.00 | 0.00 | 0.00 | 57 | 1017.4 |
| 20260901080016 | 86 | 270 | 7.0 | 14.0 | 0.00 | 0.00 | 0.00 | 57 | 1017.4 |
| 20260901075536 | 86 | 293 | 5.0 | 11.0 | 0.00 | 0.00 | 0.00 | 57 | 1017.3 |
| 20260901075017 | 86 | 0 | 6.0 | 13.0 | 0.00 | 0.00 | 0.00 | 57 | 1017.3 |
| 20260901074516 | 86 | 0 | 6.0 | 16.0 | 0.00 | 0.00 | 0.00 | 58 | 1017.3 |
| 20260901074017 | 86 | 315 | 5.0 | 15.0 | 0.00 | 0.00 | 0.00 | 58 | 1017.3 |
| 20260901073537 | 85 | 248 | 4.0 | 13.0 | 0.00 | 0.00 | 0.00 | 60 | 1017.3 |
| 20260901073016 | 85 | 338 | 7.0 | 18.0 | 0.00 | 0.00 | 0.00 | 59 | 1017.3 |
| 20260901072517 | 85 | 203 | 4.0 | 9.0 | 0.00 | 0.00 | 0.00 | 60 | 1017.4 |
| 20260901072016 | 86 | 0 | 6.0 | 17.0 | 0.00 | 0.00 | 0.00 | 60 | 1017.4 |
| 20260901071516 | 85 | 248 | 4.0 | 10.0 | 0.00 | 0.00 | 0.00 | 61 | 1017.3 |
| 20260901071016 | 85 | 293 | 5.0 | 11.0 | 0.00 | 0.00 | 0.00 | 60 | 1017.2 |
| 20260901070536 | 85 | 270 | 4.0 | 12.0 | 0.00 | 0.00 | 0.00 | 60 | 1017.2 |
| 20260901070016 | 85 | 270 | 2.0 | 4.0 | 0.00 | 0.00 | 0.00 | 63 | 1017.2 |
| 20260901065516 | 84 | 248 | 3.0 | 6.0 | 0.00 | 0.00 | 0.00 | 63 | 1017.1 |
| 20260901065036 | 84 | 270 | 3.0 | 10.0 | 0.00 | 0.00 | 0.00 | 63 | 1017.0 |
| 20260901064516 | 84 | 293 | 6.0 | 10.0 | 0.00 | 0.00 | 0.00 | 62 | 1017.1 |
| 20260901064016 | 84 | 338 | 5.0 | 12.0 | 0.00 | 0.00 | 0.00 | 65 | 1017.1 |
| 20260901063516 | 83 | 270 | 4.0 | 10.0 | 0.00 | 0.00 | 0.00 | 65 | 1017.1 |
| 20260901063016 | 83 | 293 | 7.0 | 14.0 | 0.00 | 0.00 | 0.00 | 65 | 1017.1 |
| 20260901062516 | 83 | 293 | 6.0 | 15.0 | 0.00 | 0.00 | 0.00 | 66 | 1017.1 |
| 20260901062016 | 83 | 315 | 4.0 | 10.0 | 0.00 | 0.00 | 0.00 | 65 | 1017.1 |
| 20260901061516 | 83 | 293 | 7.0 | 18.0 | 0.00 | 0.00 | 0.00 | 66 | 1017.3 |
| 20260901061016 | 83 | 315 | 6.0 | 15.0 | 0.00 | 0.00 | 0.00 | 66 | 1017.2 |
| 20260901060516 | 83 | 338 | 7.0 | 18.0 | 0.00 | 0.00 | 0.00 | 67 | 1017.2 |
| 20260901060016 | 83 | 0 | 6.0 | 11.0 | 0.00 | 0.00 | 0.00 | 67 | 1017.3 |
| 20260901055516 | 83 | 338 | 6.0 | 11.0 | 0.00 | 0.00 | 0.00 | 67 | 1017.2 |
| 20260901055018 | 83 | 338 | 3.0 | 9.0 | 0.00 | 0.00 | 0.00 | 67 | 1017.2 |
| 20260901054516 | 82 | 293 | 9.0 | 17.0 | 0.00 | 0.00 | 0.00 | 67 | 1017.1 |
| 20260901054016 | 83 | 0 | 6.0 | 14.0 | 0.00 | 0.00 | 0.00 | 66 | 1017.0 |
| 20260901053517 | 82 | 0 | 6.0 | 13.0 | 0.00 | 0.00 | 0.00 | 68 | 1017.0 |
| 20260901053016 | 82 | 0 | 4.0 | 11.0 | 0.00 | 0.00 | 0.00 | 68 | 1017.0 |
| 20260901052536 | 82 | 23 | 8.0 | 15.0 | 0.00 | 0.00 | 0.00 | 69 | 1016.8 |
| 20260901052016 | 82 | 315 | 5.0 | 11.0 | 0.00 | 0.00 | 0.00 | 69 | 1016.8 |
| 20260901051516 | 81 | 270 | 5.0 | 14.0 | 0.00 | 0.00 | 0.00 | 71 | 1016.7 |
| 20260901051036 | 81 | 315 | 4.0 | 12.0 | 0.00 | 0.00 | 0.00 | 71 | 1016.7 |
| 20260901050516 | 81 | 338 | 5.0 | 12.0 | 0.00 | 0.00 | 0.00 | 71 | 1016.7 |
| 20260901050039 | 81 | 0 | 3.0 | 11.0 | 0.00 | 0.00 | 0.00 | 72 | 1016.6 |
| 20260901045516 | 81 | 338 | 5.0 | 11.0 | 0.00 | 0.00 | 0.00 | 72 | 1016.5 |
| 20260901045016 | 81 | 315 | 5.0 | 12.0 | 0.00 | 0.00 | 0.00 | 71 | 1016.5 |
| 20260901044556 | 81 | 293 | 6.0 | 11.0 | 0.00 | 0.00 | 0.00 | 72 | 1016.4 |
| 20260901044056 | 81 | 0 | 6.0 | 14.0 | 0.00 | 0.00 | 0.00 | 72 | 1016.3 |
| 20260901043516 | 81 | 338 | 4.0 | 11.0 | 0.00 | 0.00 | 0.00 | 72 | 1016.3 |
| 20260901043016 | 81 | 338 | 6.0 | 15.0 | 0.00 | 0.00 | 0.00 | 72 | 1016.3 |
| 20260901042516 | 81 | 0 | 7.0 | 15.0 | 0.00 | 0.00 | 0.00 | 72 | 1016.1 |
| 20260901042036 | 81 | 293 | 5.0 | 12.0 | 0.00 | 0.00 | 0.00 | 72 | 1016.0 |
| 20260901041516 | 81 | 338 | 6.0 | 15.0 | 0.00 | 0.00 | 0.00 | 72 | 1016.1 |
| 20260901041016 | 81 | 0 | 6.0 | 15.0 | 0.00 | 0.00 | 0.00 | 72 | 1016.2 |
| 20260901040516 | 81 | 0 | 8.0 | 13.0 | 0.00 | 0.00 | 0.00 | 71 | 1016.3 |
| 20260901040016 | 81 | 23 | 4.0 | 11.0 | 0.00 | 0.00 | 0.00 | 71 | 1016.2 |
| 20260901035516 | 81 | 0 | 6.0 | 16.0 | 0.00 | 0.00 | 0.00 | 71 | 1016.3 |
| 20260901035016 | 81 | 338 | 9.0 | 17.0 | 0.00 | 0.00 | 0.00 | 71 | 1016.3 |
| 20260901034516 | 81 | 315 | 8.0 | 16.0 | 0.00 | 0.00 | 0.00 | 71 | 1016.3 |
| 20260901034016 | 81 | 0 | 8.0 | 15.0 | 0.00 | 0.00 | 0.00 | 71 | 1016.2 |
| 20260901033516 | 81 | 23 | 7.0 | 19.0 | 0.00 | 0.00 | 0.00 | 71 | 1016.1 |
| 20260901033017 | 81 | 315 | 7.0 | 18.0 | 0.00 | 0.00 | 0.00 | 71 | 1016.3 |
| 20260901032516 | 81 | 45 | 6.0 | 13.0 | 0.00 | 0.00 | 0.00 | 70 | 1016.3 |
| 20260901032016 | 81 | 23 | 4.0 | 13.0 | 0.00 | 0.00 | 0.00 | 71 | 1016.4 |
| 20260901031516 | 81 | 45 | 2.0 | 10.0 | 0.00 | 0.00 | 0.00 | 71 | 1016.4 |
| 20260901031015 | 81 | 113 | 5.0 | 11.0 | 0.00 | 0.00 | 0.00 | 72 | 1016.4 |
| 20260901030515 | 81 | 68 | 4.0 | 15.0 | 0.00 | 0.00 | 0.00 | 72 | 1016.3 |
| 20260901030015 | 81 | 293 | 3.0 | 8.0 | 0.00 | 0.00 | 0.00 | 72 | 1016.3 |
| 20260901025516 | 81 | 293 | 5.0 | 16.0 | 0.00 | 0.00 | 0.00 | 71 | 1016.3 |
| 20260901025016 | 81 | 225 | 4.0 | 14.0 | 0.00 | 0.00 | 0.00 | 72 | 1016.3 |
| 20260901024515 | 81 | 68 | 3.0 | 12.0 | 0.00 | 0.00 | 0.00 | 72 | 1016.3 |
| 20260901024015 | 81 | 315 | 5.0 | 13.0 | 0.00 | 0.00 | 0.00 | 71 | 1016.2 |
| 20260901023516 | 81 | 338 | 5.0 | 11.0 | 0.00 | 0.00 | 0.00 | 71 | 1016.3 |
| 20260901023016 | 81 | 338 | 4.0 | 12.0 | 0.00 | 0.00 | 0.00 | 71 | 1016.3 |
| 20260901022515 | 81 | 338 | 6.0 | 25.0 | 0.00 | 0.00 | 0.00 | 71 | 1016.5 |
| 20260901022036 | 81 | 68 | 4.0 | 25.0 | 0.00 | 0.00 | 0.00 | 71 | 1016.5 |
| 20260901021516 | 81 | 293 | 5.0 | 12.0 | 0.00 | 0.00 | 0.00 | 70 | 1016.5 |
| 20260901021016 | 81 | 90 | 4.0 | 13.0 | 0.00 | 0.00 | 0.00 | 71 | 1016.4 |
| 20260901020516 | 81 | 90 | 6.0 | 14.0 | 0.00 | 0.00 | 0.00 | 71 | 1016.4 |
| 20260901020015 | 81 | 68 | 7.0 | 14.0 | 0.00 | 0.00 | 0.00 | 70 | 1016.5 |
| 20260901015516 | 81 | 293 | 5.0 | 12.0 | 0.00 | 0.00 | 0.00 | 70 | 1016.6 |
| 20260901015015 | 81 | 68 | 6.0 | 13.0 | 0.00 | 0.00 | 0.00 | 69 | 1016.6 |
| 20260901014515 | 82 | 68 | 4.0 | 11.0 | 0.00 | 0.00 | 0.00 | 68 | 1016.6 |
| 20260901014015 | 82 | 113 | 3.0 | 9.0 | 0.00 | 0.00 | 0.00 | 68 | 1016.7 |
| 20260901013516 | 82 | 68 | 3.0 | 11.0 | 0.00 | 0.00 | 0.00 | 66 | 1016.7 |
| 20260901013015 | 82 | 90 | 3.0 | 9.0 | 0.00 | 0.00 | 0.00 | 65 | 1016.7 |
| 20260901012515 | 82 | 158 | 5.0 | 14.0 | 0.00 | 0.00 | 0.00 | 69 | 1016.6 |
| 20260901012015 | 82 | 23 | 7.0 | 16.0 | 0.00 | 0.00 | 0.00 | 68 | 1016.5 |
| 20260901011515 | 82 | 68 | 4.0 | 12.0 | 0.00 | 0.00 | 0.00 | 66 | 1016.4 |
| 20260901011015 | 82 | 23 | 8.0 | 15.0 | 0.00 | 0.00 | 0.00 | 65 | 1016.3 |
| 20260901010515 | 82 | 90 | 5.0 | 18.0 | 0.00 | 0.00 | 0.00 | 66 | 1016.3 |
| 20260901005516 | 82 | 0 | 8.0 | 17.0 | 0.00 | 0.00 | 0.00 | 64 | 1016.1 |
| 20260901005035 | 82 | 23 | 8.0 | 18.0 | 0.00 | 0.00 | 0.00 | 63 | 1015.9 |
| 20260901004515 | 82 | 315 | 12.0 | 24.0 | 0.00 | 0.00 | 0.00 | 64 | 1016.0 |
| 20260901004016 | 82 | 0 | 9.0 | 19.0 | 0.00 | 0.00 | 0.00 | 66 | 1015.9 |
| 20260901003515 | 81 | 338 | 8.0 | 18.0 | 0.00 | 0.00 | 0.00 | 70 | 1016.0 |
| 20260901003015 | 81 | 315 | 5.0 | 12.0 | 0.00 | 0.00 | 0.00 | 71 | 1016.1 |
| 20260901002516 | 81 | 315 | 6.0 | 16.0 | 0.00 | 0.00 | 0.00 | 70 | 1016.1 |
| 20260901002017 | 81 | 338 | 5.0 | 19.0 | 0.00 | 0.00 | 0.00 | 70 | 1016.0 |
| 20260901001537 | 81 | 0 | 6.0 | 19.0 | 0.00 | 0.00 | 0.00 | 70 | 1016.0 |
| 20260901001019 | 81 | 293 | 4.0 | 10.0 | 0.00 | 0.00 | 0.00 | 70 | 1016.1 |
| 20260901000517 | 81 | 270 | 3.0 | 6.0 | 0.00 | 0.00 | 0.00 | 70 | 1016.0 |
| 20260901000017 | 81 | 270 | 5.0 | 10.0 | 0.00 | 0.00 | 0.00 | 70 | 1016.2 |
| 20260831235517 | 81 | 0 | 7.0 | 14.0 | 0.00 | 0.00 | 0.00 | 70 | 1016.3 |
| 20260831235057 | 81 | 0 | 4.0 | 11.0 | 0.00 | 0.00 | 0.00 | 69 | 1016.3 |
| 20260831234517 | 81 | 23 | 2.0 | 5.0 | 0.00 | 0.00 | 0.00 | 69 | 1016.4 |
| 20260831234017 | 81 | 338 | 4.0 | 10.0 | 0.00 | 0.00 | 0.00 | 69 | 1016.2 |
| 20260831233517 | 81 | 0 | 5.0 | 11.0 | 0.00 | 0.00 | 0.00 | 69 | 1016.2 |
| 20260831233017 | 82 | 338 | 4.0 | 10.0 | 0.00 | 0.00 | 0.00 | 69 | 1016.3 |
| 20260831232517 | 82 | 23 | 2.0 | 6.0 | 0.00 | 0.00 | 0.00 | 69 | 1016.4 |
| 20260831232017 | 82 | 23 | 3.0 | 10.0 | 0.00 | 0.00 | 0.00 | 68 | 1016.4 |
| 20260831231517 | 82 | 315 | 6.0 | 16.0 | 0.00 | 0.00 | 0.00 | 67 | 1016.4 |